Hourly Data Report for May 12, 2020

STE-ANNE-DE-BELLEVUE 1
QUEBEC
Current Station Operator: ECCC - MSC

45°25'38.000" N
73°55'45.000" W
39.00 m
702FHL8
71377
WVQ

Download Data

Hourly Data (May 2020)
Hourly Data Report for May 12, 2020
TIME
LST
Temp Definition
°C
Dew Point Definition
°C
Rel Hum Definition
%
Precip. Amount Definition
mm

Wind Dir Definition
10's deg

Wind Spd Definition
km/h
Visibility Definition
km
Stn Press Definition
kPa
Hmdx Definition


Wind Chill Definition


Weather Definition


00:00 6.4 -8.3 34 0.0 34 20   100.65     LegendNANA
01:00 4.4 -8.7 38 0.0 34 22   100.70     LegendNANA
02:00 3.0 -10.5 36 0.0 35 19   100.77     LegendNANA
03:00 0.7 -10.6 43 0.0 35 10   100.84     LegendNANA
04:00 0.8 -11.7 38 0.0 33 14   100.87     LegendNANA
05:00 1.0 -11.8 38 0.0 36 12   100.94     LegendNANA
06:00 1.3 -11.3 38 0.0 35 16   101.04     LegendNANA
07:00 1.7 -11.6 37 0.0 34 15   101.07     LegendNANA
08:00 2.6 -11.4 35 0.0 35 14   101.09     LegendNANA
09:00 3.9 -11.7 31 0.0 32 14   101.06     LegendNANA
10:00 5.9 -10.1 31 0.0 28 18   101.06     LegendNANA
11:00 6.7 -11.6 26 0.0 28 20   101.04     LegendNANA
12:00 7.6 -10.9 26 0.0 27 24   101.00     LegendNANA
13:00 8.3 -10.8 24 0.0 28 23   100.98     LegendNANA
14:00 9.2 -11.4 22 0.0 28 27   100.95     LegendNANA
15:00 9.0 -12.9 20 0.0 29 23   100.93     LegendNANA
16:00 9.0 -13.3 19 0.0 29 25   100.95     LegendNANA
17:00 9.2 -12.8 20 0.0 30 23   100.98     LegendNANA
18:00 8.3 -12.5 22 0.0 30 17   101.03     LegendNANA
19:00 7.2 -12.7 23 0.0 32 22   101.11     LegendNANA
20:00 5.9 -11.4 28 0.0 33 16   101.20     LegendNANA
21:00 5.2 -10.9 30 0.0 31 12   101.28     LegendNANA
22:00 4.8 -10.9 31 0.0 30 10   101.35     LegendNANA
23:00 3.1 -7.6 45 0.0 25 9   101.41     LegendNANA

Notes on Data Quality.

Legend

  • E = Estimated
  • M = Missing
  • NA = Not Available*
  • [empty] = Indicates an unobserved value
Date modified: